Location: *
(48.8667°N, 2.3331°E)
Time: 08:40:36
(UTC+00:00)

Cosmos 2061 Rocket - Pass Details

Date: 13 August 2020
Orbit: 966 x 1012 km, 82.9° (Epoch: 23 September)

Event Time Altitude Azimuth Distance (km) Brightness Sun altitude
Exits shadow 23:22:21 20° 246° (WSW) 2,092 5.6 -26.4°
Maximum altitude 23:25:37 31° 292° (WNW) 1,636 5.4 -26.5°
Drops below altitude 10° 23:31:04 10° 353° (N) 2,719 7.3 -26.6°
Sets 23:33:55 0° 4° (N) 3,673 8.3 -26.7°
